Time,TemperatureF,DewpointF,PressureIn,WindDirection,WindDirectionDegrees,WindSpeedMPH,WindSpeedGustMPH,Humidity,HourlyPrecipIn,Conditions,Clouds,dailyrainin,SoftwareType,DateUTC
2013-06-17 00:00:00,74.8,69.3,30.03,SW,229,0.0,0.0,83,0.00,,,0.00,Wunderground v.1.15,2013-06-17 04:00:00,
2013-06-17 00:05:00,74.7,69.2,30.04,SW,229,0.0,0.0,83,0.00,,,0.00,Wunderground v.1.15,2013-06-17 04:05:00,
2013-06-17 00:10:00,74.6,69.1,30.03,SW,229,0.0,0.0,83,0.00,,,0.00,Wunderground v.1.15,2013-06-17 04:10:00,
2013-06-17 00:15:00,74.5,69.0,30.03,SW,229,0.0,0.0,83,0.00,,,0.00,Wunderground v.1.15,2013-06-17 04:15:00,
2013-06-17 00:20:00,74.4,68.9,30.03,SW,229,0.0,0.0,83,0.00,,,0.00,Wunderground v.1.15,2013-06-17 04:20:00,
2013-06-17 00:25:00,74.4,68.5,30.03,SW,229,0.0,0.0,82,0.00,,,0.00,Wunderground v.1.15,2013-06-17 04:25:00,
2013-06-17 00:30:00,74.3,68.8,30.03,SW,229,0.0,0.0,83,0.00,,,0.00,Wunderground v.1.15,2013-06-17 04:30:00,
2013-06-17 00:35:00,74.2,68.3,30.03,SW,229,0.0,0.0,82,0.00,,,0.00,Wunderground v.1.15,2013-06-17 04:35:00,
2013-06-17 00:40:00,74.2,68.7,30.03,SW,229,0.0,0.0,83,0.00,,,0.00,Wunderground v.1.15,2013-06-17 04:40:00,
2013-06-17 00:50:00,74.0,68.5,30.03,SW,229,0.0,0.0,83,0.00,,,0.00,Wunderground v.1.15,2013-06-17 04:50:00,
2013-06-17 00:55:00,73.9,68.4,30.04,SW,229,0.0,0.0,83,0.00,,,0.00,Wunderground v.1.15,2013-06-17 04:55:00,
2013-06-17 01:00:00,73.8,68.3,30.04,SW,229,0.0,0.0,83,0.00,,,0.00,Wunderground v.1.15,2013-06-17 05:00:00,
2013-06-17 01:05:00,73.7,68.2,30.03,WSW,256,0.0,0.0,83,0.00,,,0.00,Wunderground v.1.15,2013-06-17 05:05:00,
2013-06-17 01:15:00,73.5,68.0,30.03,WSW,256,0.0,0.0,83,0.00,,,0.00,Wunderground v.1.15,2013-06-17 05:15:00,
2013-06-17 01:20:00,73.4,67.9,30.04,WSW,256,0.0,0.0,83,0.00,,,0.00,Wunderground v.1.15,2013-06-17 05:20:00,
2013-06-17 01:30:00,73.4,67.9,30.03,West,269,0.0,0.0,83,0.00,,,0.00,Wunderground v.1.15,2013-06-17 05:30:00,
2013-06-17 01:35:00,73.4,67.9,30.03,West,271,0.0,0.0,83,0.00,,,0.00,Wunderground v.1.15,2013-06-17 05:35:00,
2013-06-17 01:40:00,73.4,67.9,30.03,West,270,0.0,0.0,83,0.00,,,0.00,Wunderground v.1.15,2013-06-17 05:40:00,
2013-06-17 01:45:00,73.3,68.2,30.03,West,269,0.0,0.0,84,0.00,,,0.00,Wunderground v.1.15,2013-06-17 05:45:00,
2013-06-17 01:50:00,73.2,68.1,30.03,West,269,0.0,0.0,84,0.00,,,0.00,Wunderground v.1.15,2013-06-17 05:50:00,
2013-06-17 02:00:00,73.2,68.1,30.03,SSW,201,0.0,0.0,84,0.00,,,0.00,Wunderground v.1.15,2013-06-17 06:00:00,
2013-06-17 02:05:00,73.1,68.0,30.03,WSW,237,0.0,0.0,84,0.00,,,0.00,Wunderground v.1.15,2013-06-17 06:05:00,
2013-06-17 02:15:00,73.1,67.6,30.03,NNW,340,0.0,2.0,83,0.00,,,0.00,Wunderground v.1.15,2013-06-17 06:15:00,
2013-06-17 02:20:00,73.1,68.0,30.03,NNW,340,0.0,0.0,84,0.00,,,0.00,Wunderground v.1.15,2013-06-17 06:20:00,
2013-06-17 02:25:00,73.1,67.6,30.03,SSE,150,0.0,0.0,83,0.00,,,0.00,Wunderground v.1.15,2013-06-17 06:25:00,
2013-06-17 02:35:00,73.0,67.5,30.03,SSW,206,0.0,0.0,83,0.00,,,0.00,Wunderground v.1.15,2013-06-17 06:35:00,
2013-06-17 02:40:00,73.0,67.5,30.03,SSW,206,0.0,0.0,83,0.00,,,0.00,Wunderground v.1.15,2013-06-17 06:40:00,
2013-06-17 02:45:00,72.9,67.4,30.03,West,273,0.0,0.0,83,0.00,,,0.00,Wunderground v.1.15,2013-06-17 06:45:00,
2013-06-17 02:50:00,72.8,67.3,30.03,West,273,0.0,0.0,83,0.00,,,0.00,Wunderground v.1.15,2013-06-17 06:50:00,
2013-06-17 03:00:00,72.7,67.2,30.02,WSW,247,0.0,0.0,83,0.00,,,0.00,Wunderground v.1.15,2013-06-17 07:00:00,
2013-06-17 03:05:00,72.6,67.1,30.02,WSW,247,0.0,0.0,83,0.00,,,0.00,Wunderground v.1.15,2013-06-17 07:05:00,
2013-06-17 03:15:00,72.5,67.4,30.02,WSW,257,0.0,0.0,84,0.00,,,0.00,Wunderground v.1.15,2013-06-17 07:15:00,
2013-06-17 03:20:00,72.5,67.4,30.02,SSW,213,0.0,0.0,84,0.00,,,0.00,Wunderground v.1.15,2013-06-17 07:20:00,
2013-06-17 03:25:00,72.5,67.4,30.02,SSW,213,0.0,0.0,84,0.00,,,0.00,Wunderground v.1.15,2013-06-17 07:25:00,
2013-06-17 03:30:00,72.5,67.4,30.02,SW,226,0.0,0.0,84,0.00,,,0.00,Wunderground v.1.15,2013-06-17 07:30:00,
2013-06-17 03:40:00,72.4,67.3,30.02,SW,226,0.0,0.0,84,0.00,,,0.00,Wunderground v.1.15,2013-06-17 07:40:00,
2013-06-17 03:45:00,72.4,67.3,30.02,SW,226,0.0,0.0,84,0.00,,,0.00,Wunderground v.1.15,2013-06-17 07:45:00,
2013-06-17 03:50:00,72.5,67.4,30.02,SW,229,0.0,0.0,84,0.00,,,0.00,Wunderground v.1.15,2013-06-17 07:50:00,
2013-06-17 04:00:00,72.4,67.3,30.02,SW,229,0.0,0.0,84,0.00,,,0.00,Wunderground v.1.15,2013-06-17 08:00:00,
2013-06-17 04:05:00,72.3,67.2,30.02,SW,229,0.0,0.0,84,0.00,,,0.00,Wunderground v.1.15,2013-06-17 08:05:00,
2013-06-17 04:15:00,72.2,67.1,30.02,SW,229,0.0,0.0,84,0.00,,,0.00,Wunderground v.1.15,2013-06-17 08:15:00,
2013-06-17 04:20:00,72.2,67.1,30.02,SW,229,0.0,0.0,84,0.00,,,0.00,Wunderground v.1.15,2013-06-17 08:20:00,
2013-06-17 04:25:00,72.1,67.0,30.02,SW,229,0.0,0.0,84,0.00,,,0.00,Wunderground v.1.15,2013-06-17 08:25:00,
2013-06-17 04:30:00,72.1,67.0,30.02,SW,229,0.0,0.0,84,0.00,,,0.00,Wunderground v.1.15,2013-06-17 08:30:00,
2013-06-17 04:40:00,72.0,66.9,30.02,WSW,244,0.0,3.0,84,0.00,,,0.00,Wunderground v.1.15,2013-06-17 08:40:00,
2013-06-17 04:45:00,72.0,66.9,30.02,WSW,244,0.0,3.0,84,0.00,,,0.00,Wunderground v.1.15,2013-06-17 08:45:00,
2013-06-17 04:50:00,72.0,66.9,30.02,WSW,244,0.0,0.0,84,0.00,,,0.00,Wunderground v.1.15,2013-06-17 08:50:00,
2013-06-17 04:55:00,72.0,66.9,30.02,WSW,247,0.0,0.0,84,0.00,,,0.00,Wunderground v.1.15,2013-06-17 08:55:00,
2013-06-17 05:05:00,72.1,67.0,30.02,WSW,240,0.0,2.0,84,0.00,,,0.00,Wunderground v.1.15,2013-06-17 09:05:00,
2013-06-17 05:15:00,72.1,67.0,30.02,WSW,240,0.0,0.0,84,0.00,,,0.00,Wunderground v.1.15,2013-06-17 09:15:00,
2013-06-17 05:20:00,72.1,67.0,30.02,WSW,240,0.0,0.0,84,0.00,,,0.00,Wunderground v.1.15,2013-06-17 09:20:00,
2013-06-17 05:25:00,72.1,67.0,30.02,WSW,240,0.0,0.0,84,0.00,,,0.00,Wunderground v.1.15,2013-06-17 09:25:00,
2013-06-17 05:30:00,72.0,66.9,30.02,WSW,240,0.0,0.0,84,0.00,,,0.00,Wunderground v.1.15,2013-06-17 09:30:00,
2013-06-17 05:35:00,72.0,66.9,30.03,WSW,240,0.0,0.0,84,0.00,,,0.00,Wunderground v.1.15,2013-06-17 09:35:00,
2013-06-17 05:45:00,71.9,66.8,30.03,WSW,240,0.0,0.0,84,0.00,,,0.00,Wunderground v.1.15,2013-06-17 09:45:00,
2013-06-17 05:50:00,71.9,66.8,30.03,WSW,240,0.0,0.0,84,0.00,,,0.00,Wunderground v.1.15,2013-06-17 09:50:00,
2013-06-17 05:55:00,71.8,66.7,30.03,WSW,240,0.0,0.0,84,0.00,,,0.00,Wunderground v.1.15,2013-06-17 09:55:00,
2013-06-17 06:00:00,71.8,66.7,30.02,SSE,149,0.0,2.0,84,0.00,,,0.00,Wunderground v.1.15,2013-06-17 10:00:00,
2013-06-17 06:05:00,71.8,66.7,30.03,SSE,149,0.0,2.0,84,0.00,,,0.00,Wunderground v.1.15,2013-06-17 10:05:00,
2013-06-17 06:15:00,71.8,66.7,30.02,West,260,0.0,0.0,84,0.00,,,0.00,Wunderground v.1.15,2013-06-17 10:15:00,
2013-06-17 06:25:00,71.8,66.7,30.03,SW,236,0.0,2.0,84,0.00,,,0.00,Wunderground v.1.15,2013-06-17 10:25:00,
2013-06-17 06:30:00,71.8,66.7,30.03,SW,236,0.0,0.0,84,0.00,,,0.00,Wunderground v.1.15,2013-06-17 10:30:00,
2013-06-17 06:35:00,71.8,66.7,30.03,SW,236,0.0,0.0,84,0.00,,,0.00,Wunderground v.1.15,2013-06-17 10:35:00,
2013-06-17 06:40:00,71.8,66.7,30.03,ENE,64,0.0,0.0,84,0.00,,,0.00,Wunderground v.1.15,2013-06-17 10:40:00,
2013-06-17 06:50:00,71.7,66.6,30.03,WSW,256,0.0,0.0,84,0.00,,,0.00,Wunderground v.1.15,2013-06-17 10:50:00,
2013-06-17 06:55:00,71.7,66.6,30.03,WSW,256,0.0,0.0,84,0.00,,,0.00,Wunderground v.1.15,2013-06-17 10:55:00,
2013-06-17 07:00:00,71.8,66.7,30.03,WSW,256,0.0,1.0,84,0.00,,,0.00,Wunderground v.1.15,2013-06-17 11:00:00,
2013-06-17 07:05:00,71.8,66.7,30.03,WSW,256,0.0,1.0,84,0.00,,,0.00,Wunderground v.1.15,2013-06-17 11:05:00,
2013-06-17 07:15:00,71.9,66.8,30.02,SW,234,0.0,0.0,84,0.00,,,0.00,Wunderground v.1.15,2013-06-17 11:15:00,
2013-06-17 07:20:00,71.9,66.8,30.02,SW,233,0.0,0.0,84,0.00,,,0.00,Wunderground v.1.15,2013-06-17 11:20:00,
2013-06-17 07:30:00,72.0,66.6,30.02,SW,233,0.0,0.0,83,0.00,,,0.00,Wunderground v.1.15,2013-06-17 11:30:00,
2013-06-17 07:35:00,72.1,66.6,30.02,SW,232,0.0,0.0,83,0.00,,,0.00,Wunderground v.1.15,2013-06-17 11:35:00,
2013-06-17 07:40:00,72.2,66.7,30.02,SW,234,0.0,2.0,83,0.00,,,0.00,Wunderground v.1.15,2013-06-17 11:40:00,
2013-06-17 07:45:00,72.3,66.8,30.02,SW,234,0.0,2.0,83,0.00,,,0.00,Wunderground v.1.15,2013-06-17 11:45:00,
2013-06-17 07:55:00,72.6,67.1,30.02,SE,130,0.0,1.0,83,0.00,,,0.00,Wunderground v.1.15,2013-06-17 11:55:00,
2013-06-17 08:00:00,72.7,66.9,30.03,SE,137,0.0,0.0,82,0.00,,,0.00,Wunderground v.1.15,2013-06-17 12:00:00,
2013-06-17 08:05:00,72.9,67.4,30.03,SW,229,0.0,2.0,83,0.00,,,0.00,Wunderground v.1.15,2013-06-17 12:05:00,
2013-06-17 08:15:00,73.0,67.2,30.02,SSW,213,0.0,0.0,82,0.00,,,0.00,Wunderground v.1.15,2013-06-17 12:15:00,
2013-06-17 08:20:00,73.2,67.4,30.02,WSW,254,0.0,0.0,82,0.00,,,0.00,Wunderground v.1.15,2013-06-17 12:20:00,
2013-06-17 08:25:00,73.3,67.5,30.02,WSW,254,0.0,0.0,82,0.00,,,0.00,Wunderground v.1.15,2013-06-17 12:25:00,
2013-06-17 08:35:00,73.4,67.6,30.02,WSW,252,0.0,0.0,82,0.00,,,0.00,Wunderground v.1.15,2013-06-17 12:35:00,
2013-06-17 08:40:00,73.5,67.7,30.03,WSW,253,0.0,0.0,82,0.00,,,0.00,Wunderground v.1.15,2013-06-17 12:40:00,
2013-06-17 08:45:00,73.8,68.0,30.03,SW,221,0.0,0.0,82,0.00,,,0.00,Wunderground v.1.15,2013-06-17 12:45:00,
2013-06-17 08:55:00,74.0,68.2,30.03,West,267,1.0,1.0,82,0.00,,,0.00,Wunderground v.1.15,2013-06-17 12:55:00,
2013-06-17 09:00:00,74.1,68.3,30.03,West,267,0.0,0.0,82,0.00,,,0.00,Wunderground v.1.15,2013-06-17 13:00:00,
2013-06-17 09:05:00,74.2,68.3,30.03,West,267,0.0,0.0,82,0.00,,,0.00,Wunderground v.1.15,2013-06-17 13:05:00,
2013-06-17 09:15:00,74.5,68.3,30.02,NW,307,0.0,0.0,81,0.00,,,0.00,Wunderground v.1.15,2013-06-17 13:15:00,
2013-06-17 09:20:00,74.7,68.5,30.02,WSW,240,1.0,2.0,81,0.00,,,0.00,Wunderground v.1.15,2013-06-17 13:20:00,
2013-06-17 09:25:00,74.8,68.2,30.02,WSW,238,1.0,2.0,80,0.00,,,0.00,Wunderground v.1.15,2013-06-17 13:25:00,
2013-06-17 09:35:00,75.0,68.8,30.02,SW,225,0.0,0.0,81,0.00,,,0.00,Wunderground v.1.15,2013-06-17 13:35:00,
2013-06-17 09:40:00,75.0,68.8,30.03,SSW,193,0.0,6.0,81,0.00,,,0.00,Wunderground v.1.15,2013-06-17 13:40:00,
2013-06-17 09:45:00,75.0,68.4,30.03,South,180,1.0,6.0,80,0.00,,,0.00,Wunderground v.1.15,2013-06-17 13:45:00,
2013-06-17 09:50:00,75.1,68.9,30.02,SSE,161,1.0,1.0,81,0.00,,,0.00,Wunderground v.1.15,2013-06-17 13:50:00,
2013-06-17 10:00:00,75.4,69.5,30.02,WNW,290,0.0,0.0,82,0.00,,,0.00,Wunderground v.1.15,2013-06-17 14:00:00,
2013-06-17 10:05:00,75.5,69.6,30.02,SW,216,0.0,1.0,82,0.00,,,0.00,Wunderground v.1.15,2013-06-17 14:05:00,
2013-06-17 10:15:00,75.9,69.6,30.01,South,186,1.0,1.0,81,0.00,,,0.00,Wunderground v.1.15,2013-06-17 14:15:00,
2013-06-17 10:20:00,76.1,69.5,30.01,South,176,0.0,0.0,80,0.00,,,0.00,Wunderground v.1.15,2013-06-17 14:20:00,
2013-06-17 10:25:00,76.4,69.8,30.01,SSW,193,1.0,1.0,80,0.00,,,0.00,Wunderground v.1.15,2013-06-17 14:25:00,
2013-06-17 10:30:00,76.7,70.1,30.01,SSW,193,0.0,0.0,80,0.00,,,0.00,Wunderground v.1.15,2013-06-17 14:30:00,
2013-06-17 10:40:00,77.1,70.5,30.01,West,275,0.0,0.0,80,0.00,,,0.00,Wunderground v.1.15,2013-06-17 14:40:00,
2013-06-17 10:45:00,77.2,70.5,30.00,West,275,0.0,0.0,80,0.00,,,0.00,Wunderground v.1.15,2013-06-17 14:45:00,
2013-06-17 10:50:00,77.2,70.5,30.00,WNW,293,0.0,0.0,80,0.00,,,0.00,Wunderground v.1.15,2013-06-17 14:50:00,
2013-06-17 10:55:00,77.3,70.6,30.00,WSW,255,0.0,0.0,80,0.00,,,0.00,Wunderground v.1.15,2013-06-17 14:55:00,
2013-06-17 11:05:00,77.8,71.1,30.00,WSW,244,0.0,1.0,80,0.00,,,0.00,Wunderground v.1.15,2013-06-17 15:05:00,
2013-06-17 11:15:00,78.5,71.8,30.01,WSW,244,0.0,0.0,80,0.00,,,0.00,Wunderground v.1.15,2013-06-17 15:15:00,
2013-06-17 11:20:00,78.7,71.3,30.01,SW,218,0.0,0.0,78,0.00,,,0.00,Wunderground v.1.15,2013-06-17 15:20:00,
2013-06-17 11:25:00,78.9,71.5,30.01,SW,230,1.0,1.0,78,0.00,,,0.00,Wunderground v.1.15,2013-06-17 15:25:00,
2013-06-17 11:30:00,79.2,71.7,30.00,SSW,198,1.0,1.0,78,0.00,,,0.00,Wunderground v.1.15,2013-06-17 15:30:00,
2013-06-17 11:35:00,79.5,71.7,30.00,SW,221,1.0,1.0,77,0.00,,,0.00,Wunderground v.1.15,2013-06-17 15:35:00,
2013-06-17 11:45:00,79.9,71.7,30.00,SSW,207,1.0,1.0,76,0.00,,,0.00,Wunderground v.1.15,2013-06-17 15:45:00,
2013-06-17 11:50:00,80.0,71.8,30.00,WSW,252,1.0,1.0,76,0.00,,,0.00,Wunderground v.1.15,2013-06-17 15:50:00,
2013-06-17 11:55:00,80.1,72.6,30.00,WSW,251,0.0,1.0,78,0.00,,,0.00,Wunderground v.1.15,2013-06-17 15:55:00,
2013-06-17 12:00:00,80.2,72.7,30.00,SSW,213,0.0,0.0,78,0.00,,,0.00,Wunderground v.1.15,2013-06-17 16:00:00,
2013-06-17 12:05:00,80.1,71.8,30.00,SSW,209,1.0,1.0,76,0.00,,,0.00,Wunderground v.1.15,2013-06-17 16:05:00,
2013-06-17 12:15:00,79.8,71.9,30.00,SSW,208,0.0,1.0,77,0.00,,,0.00,Wunderground v.1.15,2013-06-17 16:15:00,
2013-06-17 12:25:00,79.6,72.1,30.00,SSW,208,0.0,0.0,78,0.00,,,0.00,Wunderground v.1.15,2013-06-17 16:25:00,
2013-06-17 12:30:00,79.6,72.1,30.00,South,190,0.0,0.0,78,0.00,,,0.00,Wunderground v.1.15,2013-06-17 16:30:00,
2013-06-17 12:35:00,79.5,72.4,30.00,SSW,197,0.0,1.0,79,0.00,,,0.00,Wunderground v.1.15,2013-06-17 16:35:00,
2013-06-17 12:40:00,79.4,72.3,30.00,WNW,302,0.0,0.0,79,0.00,,,0.00,Wunderground v.1.15,2013-06-17 16:40:00,
2013-06-17 12:50:00,79.0,71.6,30.00,ENE,65,0.0,0.0,78,0.00,,,0.00,Wunderground v.1.15,2013-06-17 16:50:00,
2013-06-17 12:55:00,78.7,72.0,30.00,SSE,165,0.0,0.0,80,0.00,,,0.00,Wunderground v.1.15,2013-06-17 16:55:00,
2013-06-17 13:00:00,78.5,72.5,30.00,SSE,165,0.0,0.0,82,0.00,,,0.01,Wunderground v.1.15,2013-06-17 17:00:00,
2013-06-17 13:05:00,78.0,72.8,30.00,SSE,165,0.0,0.0,84,0.00,,,0.01,Wunderground v.1.15,2013-06-17 17:05:00,
2013-06-17 13:15:00,76.9,73.1,30.00,SSE,165,0.0,0.0,88,0.05,,,0.02,Wunderground v.1.15,2013-06-17 17:15:00,
2013-06-17 13:20:00,76.5,73.0,30.00,SSE,165,0.0,0.0,89,0.05,,,0.02,Wunderground v.1.15,2013-06-17 17:20:00,
2013-06-17 13:30:00,76.3,73.5,30.00,SSE,165,0.0,0.0,91,0.00,,,0.02,Wunderground v.1.15,2013-06-17 17:30:00,
2013-06-17 13:35:00,76.3,73.5,30.00,SSE,165,0.0,0.0,91,0.00,,,0.02,Wunderground v.1.15,2013-06-17 17:35:00,
2013-06-17 13:40:00,76.3,73.8,30.00,SSE,165,0.0,0.0,92,0.00,,,0.02,Wunderground v.1.15,2013-06-17 17:40:00,
2013-06-17 13:45:00,76.3,73.5,30.00,WSW,248,0.0,0.0,91,0.00,,,0.02,Wunderground v.1.15,2013-06-17 17:45:00,
2013-06-17 13:55:00,76.1,73.3,30.00,WSW,248,0.0,0.0,91,0.00,,,0.02,Wunderground v.1.15,2013-06-17 17:55:00,
2013-06-17 14:00:00,76.3,73.8,30.00,West,275,0.0,0.0,92,0.00,,,0.02,Wunderground v.1.15,2013-06-17 18:00:00,
2013-06-17 14:05:00,76.3,73.5,30.00,West,274,0.0,0.0,91,0.00,,,0.02,Wunderground v.1.15,2013-06-17 18:05:00,
2013-06-17 14:15:00,76.7,73.9,30.00,SSE,151,0.0,0.0,91,0.00,,,0.02,Wunderground v.1.15,2013-06-17 18:15:00,
2013-06-17 14:20:00,77.0,73.5,30.00,SSW,201,0.0,0.0,89,0.00,,,0.02,Wunderground v.1.15,2013-06-17 18:20:00,
2013-06-17 14:25:00,77.3,73.1,30.00,SW,230,1.0,1.0,87,0.00,,,0.02,Wunderground v.1.15,2013-06-17 18:25:00,
2013-06-17 14:30:00,77.6,73.4,29.99,NW,306,1.0,1.0,87,0.00,,,0.02,Wunderground v.1.15,2013-06-17 18:30:00,
2013-06-17 14:40:00,78.4,73.9,29.99,SSW,203,0.0,0.0,86,0.00,,,0.02,Wunderground v.1.15,2013-06-17 18:40:00,
2013-06-17 14:45:00,78.7,73.8,29.99,SW,218,0.0,0.0,85,0.00,,,0.02,Wunderground v.1.15,2013-06-17 18:45:00,
2013-06-17 14:50:00,79.1,73.8,29.98,South,174,0.0,0.0,84,0.00,,,0.02,Wunderground v.1.15,2013-06-17 18:50:00,
2013-06-17 15:00:00,79.8,74.9,29.98,North,10,0.0,0.0,85,0.00,,,0.02,Wunderground v.1.15,2013-06-17 19:00:00,
2013-06-17 15:05:00,80.3,74.3,29.98,SSW,204,0.0,1.0,82,0.00,,,0.02,Wunderground v.1.15,2013-06-17 19:05:00,
2013-06-17 15:15:00,81.2,74.4,29.97,South,171,0.0,0.0,80,0.00,,,0.02,Wunderground v.1.15,2013-06-17 19:15:00,
2013-06-17 15:20:00,81.7,74.5,29.97,SW,229,0.0,0.0,79,0.00,,,0.02,Wunderground v.1.15,2013-06-17 19:20:00,
2013-06-17 15:25:00,82.0,74.5,29.97,SSW,201,0.0,0.0,78,0.00,,,0.02,Wunderground v.1.15,2013-06-17 19:25:00,
2013-06-17 15:30:00,81.9,73.2,29.97,SE,128,0.0,2.0,75,0.00,,,0.02,Wunderground v.1.15,2013-06-17 19:30:00,
2013-06-17 15:40:00,82.6,73.9,29.97,SSE,157,1.0,1.0,75,0.00,,,0.02,Wunderground v.1.15,2013-06-17 19:40:00,
2013-06-17 15:45:00,82.8,73.7,29.97,SSW,209,2.0,2.0,74,0.00,,,0.02,Wunderground v.1.15,2013-06-17 19:45:00,
2013-06-17 15:50:00,83.2,74.0,29.96,SW,218,1.0,3.0,74,0.00,,,0.02,Wunderground v.1.15,2013-06-17 19:50:00,
2013-06-17 15:55:00,83.5,74.3,29.96,SSE,152,1.0,3.0,74,0.00,,,0.02,Wunderground v.1.15,2013-06-17 19:55:00,
2013-06-17 16:00:00,83.4,73.8,29.96,SE,146,1.0,1.0,73,0.00,,,0.02,Wunderground v.1.15,2013-06-17 20:00:00,
2013-06-17 16:05:00,83.6,73.6,29.95,WSW,238,1.0,1.0,72,0.00,,,0.02,Wunderground v.1.15,2013-06-17 20:05:00,
2013-06-17 16:15:00,84.5,74.5,29.95,SW,217,1.0,1.0,72,0.00,,,0.02,Wunderground v.1.15,2013-06-17 20:15:00,
2013-06-17 16:20:00,84.9,74.4,29.95,West,272,1.0,2.0,71,0.00,,,0.02,Wunderground v.1.15,2013-06-17 20:20:00,
2013-06-17 16:25:00,85.6,74.7,29.94,SSE,163,1.0,2.0,70,0.00,,,0.02,Wunderground v.1.15,2013-06-17 20:25:00,
2013-06-17 16:30:00,85.9,74.5,29.94,West,259,1.0,2.0,69,0.00,,,0.02,Wunderground v.1.15,2013-06-17 20:30:00,
2013-06-17 16:35:00,85.7,75.2,29.94,West,259,1.0,2.0,71,0.00,,,0.02,Wunderground v.1.15,2013-06-17 20:35:00,
2013-06-17 16:45:00,85.8,74.0,29.94,South,177,1.0,1.0,68,0.00,,,0.02,Wunderground v.1.15,2013-06-17 20:45:00,
2013-06-17 16:50:00,85.7,74.8,29.94,South,180,0.0,0.0,70,0.00,,,0.02,Wunderground v.1.15,2013-06-17 20:50:00,
2013-06-17 16:55:00,85.2,73.9,29.94,WSW,246,0.0,0.0,69,0.00,,,0.02,Wunderground v.1.15,2013-06-17 20:55:00,
2013-06-17 17:00:00,84.8,73.9,29.94,NNW,342,0.0,0.0,70,0.00,,,0.02,Wunderground v.1.15,2013-06-17 21:00:00,
2013-06-17 17:05:00,84.5,74.5,29.94,NNW,342,0.0,0.0,72,0.00,,,0.02,Wunderground v.1.15,2013-06-17 21:05:00,
2013-06-17 17:15:00,83.9,73.9,29.93,SSE,155,0.0,0.0,72,0.00,,,0.02,Wunderground v.1.15,2013-06-17 21:15:00,
2013-06-17 17:20:00,83.8,75.0,29.93,SSE,155,0.0,0.0,75,0.00,,,0.02,Wunderground v.1.15,2013-06-17 21:20:00,
2013-06-17 17:25:00,83.7,74.9,29.93,SSE,155,0.0,0.0,75,0.00,,,0.02,Wunderground v.1.15,2013-06-17 21:25:00,
2013-06-17 17:30:00,83.9,74.7,29.93,SSE,164,0.0,0.0,74,0.00,,,0.02,Wunderground v.1.15,2013-06-17 21:30:00,
2013-06-17 17:35:00,84.2,75.0,29.93,SSE,164,0.0,0.0,74,0.00,,,0.02,Wunderground v.1.15,2013-06-17 21:35:00,
2013-06-17 17:45:00,85.1,74.2,29.93,WNW,286,0.0,0.0,70,0.00,,,0.02,Wunderground v.1.15,2013-06-17 21:45:00,
2013-06-17 17:50:00,85.3,74.8,29.93,WNW,286,0.0,0.0,71,0.00,,,0.02,Wunderground v.1.15,2013-06-17 21:50:00,
2013-06-17 17:55:00,85.0,73.7,29.93,WNW,286,0.0,0.0,69,0.00,,,0.02,Wunderground v.1.15,2013-06-17 21:55:00,
2013-06-17 18:00:00,85.0,74.5,29.93,WNW,286,0.0,0.0,71,0.00,,,0.02,Wunderground v.1.15,2013-06-17 22:00:00,
2013-06-17 18:05:00,85.0,75.0,29.93,WNW,286,0.0,0.0,72,0.00,,,0.02,Wunderground v.1.15,2013-06-17 22:05:00,
2013-06-17 18:15:00,85.5,75.9,29.93,WNW,286,0.0,0.0,73,0.00,,,0.02,Wunderground v.1.15,2013-06-17 22:15:00,
2013-06-17 18:25:00,86.0,74.2,29.93,WSW,250,0.0,0.0,68,0.00,,,0.02,Wunderground v.1.15,2013-06-17 22:25:00,
2013-06-17 18:30:00,86.0,73.8,29.93,WSW,250,0.0,0.0,67,0.00,,,0.02,Wunderground v.1.15,2013-06-17 22:30:00,
2013-06-17 18:35:00,85.8,74.4,29.93,WSW,250,0.0,0.0,69,0.00,,,0.02,Wunderground v.1.15,2013-06-17 22:35:00,
2013-06-17 18:40:00,85.5,74.6,29.93,WSW,250,0.0,0.0,70,0.00,,,0.02,Wunderground v.1.15,2013-06-17 22:40:00,
2013-06-17 18:50:00,84.4,74.0,29.93,WSW,250,0.0,0.0,71,0.00,,,0.02,Wunderground v.1.15,2013-06-17 22:50:00,
2013-06-17 18:55:00,83.9,74.3,29.93,WSW,250,0.0,0.0,73,0.00,,,0.02,Wunderground v.1.15,2013-06-17 22:55:00,
2013-06-17 19:00:00,83.5,73.5,29.93,WSW,250,0.0,0.0,72,0.00,,,0.02,Wunderground v.1.15,2013-06-17 23:00:00,
2013-06-17 19:05:00,83.0,73.4,29.93,WSW,250,0.0,0.0,73,0.00,,,0.02,Wunderground v.1.15,2013-06-17 23:05:00,
2013-06-17 19:15:00,82.5,73.8,29.93,WSW,250,0.0,0.0,75,0.00,,,0.02,Wunderground v.1.15,2013-06-17 23:15:00,
2013-06-17 19:25:00,82.1,74.2,29.93,WSW,250,0.0,0.0,77,0.00,,,0.02,Wunderground v.1.15,2013-06-17 23:25:00,
2013-06-17 19:30:00,81.9,74.7,29.93,WSW,250,0.0,0.0,79,0.00,,,0.02,Wunderground v.1.15,2013-06-17 23:30:00,
2013-06-17 19:35:00,81.5,74.0,29.93,WSW,250,0.0,0.0,78,0.00,,,0.02,Wunderground v.1.15,2013-06-17 23:35:00,
2013-06-17 19:40:00,81.2,73.7,29.92,WSW,250,0.0,0.0,78,0.00,,,0.02,Wunderground v.1.15,2013-06-17 23:40:00,
2013-06-17 19:50:00,80.7,73.2,29.93,WSW,250,0.0,0.0,78,0.00,,,0.02,Wunderground v.1.15,2013-06-17 23:50:00,
2013-06-17 19:55:00,80.6,73.5,29.93,WSW,250,0.0,0.0,79,0.00,,,0.02,Wunderground v.1.15,2013-06-17 23:55:00,
2013-06-17 20:00:00,80.3,73.2,29.93,WSW,250,0.0,0.0,79,0.00,,,0.02,Wunderground v.1.15,2013-06-18 00:00:00,
2013-06-17 20:05:00,80.1,73.0,29.93,WSW,250,0.0,0.0,79,0.00,,,0.02,Wunderground v.1.15,2013-06-18 00:05:00,
2013-06-17 20:15:00,79.8,72.7,29.93,WSW,250,0.0,0.0,79,0.00,,,0.02,Wunderground v.1.15,2013-06-18 00:15:00,
2013-06-17 20:25:00,79.5,72.4,29.93,WSW,250,0.0,0.0,79,0.00,,,0.02,Wunderground v.1.15,2013-06-18 00:25:00,
2013-06-17 20:30:00,79.4,72.3,29.93,WSW,250,0.0,0.0,79,0.00,,,0.02,Wunderground v.1.15,2013-06-18 00:30:00,
2013-06-17 20:35:00,79.3,72.2,29.93,WSW,250,0.0,0.0,79,0.00,,,0.02,Wunderground v.1.15,2013-06-18 00:35:00,
2013-06-17 20:40:00,79.2,72.5,29.93,WSW,250,0.0,0.0,80,0.00,,,0.02,Wunderground v.1.15,2013-06-18 00:40:00,
2013-06-17 20:45:00,79.1,72.4,29.94,WSW,250,0.0,0.0,80,0.00,,,0.02,Wunderground v.1.15,2013-06-18 00:45:00,
2013-06-17 20:55:00,78.9,72.2,29.93,WSW,250,0.0,0.0,80,0.00,,,0.02,Wunderground v.1.15,2013-06-18 00:55:00,
2013-06-17 21:00:00,78.7,72.4,29.94,WSW,250,0.0,0.0,81,0.00,,,0.02,Wunderground v.1.15,2013-06-18 01:00:00,
2013-06-17 21:05:00,78.7,72.4,29.94,WSW,250,0.0,0.0,81,0.00,,,0.02,Wunderground v.1.15,2013-06-18 01:05:00,
2013-06-17 21:15:00,78.5,72.2,29.94,WSW,250,0.0,0.0,81,0.00,,,0.02,Wunderground v.1.15,2013-06-18 01:15:00,
2013-06-17 21:20:00,78.5,72.5,29.95,WSW,250,0.0,0.0,82,0.00,,,0.02,Wunderground v.1.15,2013-06-18 01:20:00,
2013-06-17 21:25:00,78.3,72.3,29.95,WSW,250,0.0,0.0,82,0.00,,,0.02,Wunderground v.1.15,2013-06-18 01:25:00,
2013-06-17 21:35:00,78.2,72.6,29.95,WSW,250,0.0,0.0,83,0.00,,,0.02,Wunderground v.1.15,2013-06-18 01:35:00,
2013-06-17 21:40:00,78.0,72.1,29.95,WSW,250,0.0,0.0,82,0.00,,,0.02,Wunderground v.1.15,2013-06-18 01:40:00,
2013-06-17 21:45:00,78.0,72.1,29.96,WSW,250,0.0,0.0,82,0.00,,,0.02,Wunderground v.1.15,2013-06-18 01:45:00,
2013-06-17 21:55:00,78.0,72.1,29.97,WSW,250,0.0,0.0,82,0.00,,,0.02,Wunderground v.1.15,2013-06-18 01:55:00,
2013-06-17 22:00:00,78.0,72.1,29.97,West,279,0.0,0.0,82,0.00,,,0.02,Wunderground v.1.15,2013-06-18 02:00:00,
2013-06-17 22:05:00,77.9,72.0,29.97,West,279,0.0,0.0,82,0.00,,,0.02,Wunderground v.1.15,2013-06-18 02:05:00,
2013-06-17 22:15:00,77.9,72.3,29.97,WSW,240,0.0,0.0,83,0.00,,,0.02,Wunderground v.1.15,2013-06-18 02:15:00,
2013-06-17 22:20:00,77.8,72.6,29.97,WSW,240,0.0,0.0,84,0.00,,,0.02,Wunderground v.1.15,2013-06-18 02:20:00,
2013-06-17 22:30:00,77.3,72.4,29.97,SW,218,0.0,0.0,85,0.00,,,0.02,Wunderground v.1.15,2013-06-18 02:30:00,
2013-06-17 22:35:00,77.1,72.6,29.97,SW,232,0.0,0.0,86,0.00,,,0.02,Wunderground v.1.15,2013-06-18 02:35:00,
2013-06-17 22:40:00,76.9,72.4,29.97,SW,232,0.0,0.0,86,0.00,,,0.02,Wunderground v.1.15,2013-06-18 02:40:00,
2013-06-17 22:45:00,76.7,72.2,29.98,SW,232,0.0,0.0,86,0.00,,,0.02,Wunderground v.1.15,2013-06-18 02:45:00,
2013-06-17 22:55:00,76.4,72.2,29.98,SW,232,0.0,0.0,87,0.00,,,0.02,Wunderground v.1.15,2013-06-18 02:55:00,
2013-06-17 23:00:00,76.3,72.5,29.97,SW,232,0.0,0.0,88,0.00,,,0.02,Wunderground v.1.15,2013-06-18 03:00:00,
2013-06-17 23:05:00,76.3,72.5,29.98,SW,232,0.0,0.0,88,0.00,,,0.02,Wunderground v.1.15,2013-06-18 03:05:00,
2013-06-17 23:15:00,76.2,72.4,29.98,SW,232,0.0,0.0,88,0.00,,,0.02,Wunderground v.1.15,2013-06-18 03:15:00,
2013-06-17 23:20:00,76.1,72.3,29.98,SW,232,0.0,0.0,88,0.00,,,0.02,Wunderground v.1.15,2013-06-18 03:20:00,
2013-06-17 23:25:00,76.1,72.3,29.98,SW,232,0.0,0.0,88,0.00,,,0.02,Wunderground v.1.15,2013-06-18 03:25:00,
2013-06-17 23:35:00,76.1,72.6,29.97,SW,232,0.0,0.0,89,0.00,,,0.02,Wunderground v.1.15,2013-06-18 03:35:00,
2013-06-17 23:40:00,76.0,72.5,29.97,SW,232,0.0,0.0,89,0.00,,,0.02,Wunderground v.1.15,2013-06-18 03:40:00,
2013-06-17 23:45:00,76.0,72.5,29.97,SW,232,0.0,0.0,89,0.00,,,0.02,Wunderground v.1.15,2013-06-18 03:45:00,
2013-06-17 23:50:00,76.0,72.5,29.97,SSW,199,0.0,0.0,89,0.00,,,0.02,Wunderground v.1.15,2013-06-18 03:50:00,
2013-06-17 23:55:00,76.0,72.5,29.97,SSW,199,0.0,0.0,89,0.00,,,0.02,Wunderground v.1.15,2013-06-18 03:55:00,